Dato Tsitaishvili

Chief Scout - Chikhura
3 Dec 2028
Sunday
Process

Personality

Adaptability (6) Ambition (1) Controversy (3) Loyalty (7) Pressure (19) Professionalism (3) Sportsmanship (8) Temperament (7)

Profile

Coaching Style Democratic
License Continental C
Determination 4
Man Management 9
Motivating 6
Discipline 8
Job Satisfaction
100%
Fatigue
0%
Role Chief Scout
Wage 30.9K p/w
Contract 14.03.2029

Performance

Behaviour Good
Training Effectiveness
31%
Player Development
20%
Injury Prevention
45%
Tactical Implementation
20%

Recent Events

Assessed a player now
Attended a recruitment meeting now
Assessed a player now
Assessed a player now
Assessed a player now
Assessed a player 7d ago
Birthday 7d ago
Assessed a player 7d ago

Currently Monitoring

245
Player Club Status Ability Confidence Watched Last Observed Latest Vote
Miro Arsenal Tula Active 115 / 117 40% 3 02.12.2028 -
Favio Cabral Mitre Active 123 / 131 40% 3 02.12.2028 -
Denis M. Kovalevich Dinamo Brest Active 106 / 94 40% 2 02.12.2028 -
Mauro Valiente Estudiantes Active 117 / 132 40% 6 01.12.2028 -
Jerónimo Porto Lapegüe San Telmo Active 98 / 96 40% 4 01.12.2028 -
Franco Ayunta Temperley Active 110 / 95 40% 3 01.12.2028 -
Matías Sosa Arsenal Active 102 / 108 40% 6 30.11.2028 -
Tomás Blanco Estudiantes Active 97 / 120 40% 2 30.11.2028 -
Tobías Cervera Gimnasia y Esgrima Active 114 / 138 40% 1 30.11.2028 -
Marco Miori Alvarado Active 116 / 133 40% 3 29.11.2028 -
Mauro Schönfeld Morón Active 118 / 133 40% 3 29.11.2028 -
Julián Bragado Morón Active 87 / 75 40% 1 29.11.2028 -
Julián Brea Cobresal Active 112 / 117 40% 5 28.11.2028 -
Bruno Miño Almirante Brown Active 100 / 83 40% 2 28.11.2028 -
Lorenzo Barrera Agropecuario Argentino Active 95 / 112 40% 4 28.11.2028 -
Agustín Dávila Cerro Largo Active 91 / 82 40% 4 27.11.2028 -
Chimobi Igwilo Rangers International Active 106 / 114 40% 6 27.11.2028 -
Augusto Berrondo Tristán Suárez Active 105 / 128 40% 5 27.11.2028 -
Blas Armoa Gimnasia y Esgrima Active 122 / 111 40% 5 26.11.2028 -
Lisandro Cabrera Maipú Active 103 / 106 40% 3 26.11.2028 -
Alexander Díaz Deportivo Riestra Active 115 / 110 40% 3 23.11.2028 -
Juan David Rueda Alianza Petrolera Active 101 / 102 40% 3 23.11.2028 -
Gonzalo Flores Almirante Brown Active 109 / 110 40% 2 23.11.2028 -
Giorgi Tsetskhladze Dinamo Batumi Active 98 / 78 40% 4 21.11.2028 -
Luca Franco Arsenal Active 104 / 118 40% 3 21.11.2028 -
Camilo Machado Madryn Active 109 / 99 40% 2 20.11.2028 -
Tornike Mikautadze Tskhinvali Active 91 / 93 40% 6 18.11.2028 -
Germán Cervera Alvarado Active 99 / 91 40% 1 18.11.2028 -
Clemente Montes Santiago Wanderers Active 130 / 136 40% 5 16.11.2028 -
Juan Rocca Gimnasia y Tiro Active 123 / 103 40% 1 16.11.2028 -
Sebastián Cocimano Nueva Chicago Active 111 / 130 40% 6 15.11.2028 -
Antony Alonso Deportivo Riestra Active 124 / 127 40% 4 15.11.2028 -
Ganiyu Wasiu Shooting Stars Active 84 / 104 40% 2 15.11.2028 -
Juan Peinipil Madryn Active 111 / 98 40% 4 14.11.2028 -
Nahuel Albano La Luz Active 85 / 99 40% 3 12.11.2028 -
Daniel Barrea Godoy Cruz Active 117 / 139 40% 5 10.11.2028 -
Gianluca Pugliese Güemes Active 119 / 109 40% 9 10.11.2028 -
Sebastián de Marco Fenix Active 96 / 108 40% 4 08.11.2028 -
Facundo Krüger Temperley Active 119 / 95 40% 2 08.11.2028 -
Joaquín Zappacosta Morón Active 98 / 90 40% 2 08.11.2028 -
Alao Dabani Nasarawa United Active 101 / 78 40% 3 07.11.2028 -
Renzo Conechny Tristán Suárez Active 106 / 92 40% 4 06.11.2028 -
Nicolás Medina Atlanta Active 107 / 102 40% 4 05.11.2028 -
Kirill Tsepenkov Dnepr Mogilev Active 102 / 103 40% 1 05.11.2028 -
Axel Pedrozo Almagro Active 74 / 100 40% 1 05.11.2028 -
Sagir Arce Saburtalo Active 106 / 86 40% 2 03.11.2028 -
Lucas Pedraza Defensores Unidos Active 105 / 126 40% 5 02.11.2028 -
Álex Perdomo Defensor Sporting Active 109 / 87 40% 1 31.10.2028 -
Genaro Rossi San Martín SJ Active 106 / 111 40% 4 30.10.2028 -
Joseph Arumala Ikorodu City Active 102 / 75 40% 2 30.10.2028 -
Enzo González Defensores Active 122 / 99 40% 5 29.10.2028 -
Elías Ayala Madryn Active 120 / 109 40% 2 27.10.2028 -
Kabiru Abdullahi Barau Active 103 / 69 40% 2 27.10.2028 -
David Maguicha Atlanta Active 88 / 85 40% 2 24.10.2028 -
Juan Mendoza Güemes Active 96 / 84 40% 1 22.10.2028 -
Zurab Museliani Dila Active 92 / 89 40% 4 21.10.2028 -
Abubakar Bonni Enyimba Active 89 / 82 40% 4 15.10.2028 -
David Espínola Smorgon Active 92 / 92 40% 1 15.10.2028 -
Renzo Reynaga Patronato Active 116 / 88 40% 2 09.10.2028 -
Davit Gotsiridze Kolkheti Active 80 / 82 40% 7 08.10.2028 -
Sebastián Marfort Racing Active 108 / 102 40% 2 05.10.2028 -
Sergio Riffo Kolkheti Active 88 / 100 40% 1 04.10.2028 -
Agustín Gallo Tristán Suárez Active 103 / 124 40% 3 03.10.2028 -
Ibrahim Yahaya Barau Active 108 / 83 40% 2 03.10.2028 -
Owen Falconis Cerrito Active 92 / 85 40% 1 30.09.2028 -
Luis Sandoval Independiente Medellin Active 128 / 97 40% 4 29.09.2028 -
Javohir Esonqulov Merani Active 101 / 107 40% 1 29.09.2028 -
Tomás Jerez San Miguel Active 108 / 128 40% 1 22.09.2028 -
Gustavo Viera Cerro Largo Active 108 / 105 40% 1 18.09.2028 -
Santiago Sala Güemes Active 122 / 134 40% 3 17.09.2028 -
José Barreto Quilmes Active 128 / 133 40% 4 16.09.2028 -
Bruno Scorza La Luz Active 104 / 76 40% 1 12.09.2028 -
Tiago Taobas Central Norte Active 102 / 116 40% 1 11.09.2028 -
Santiago Rodríguez Gimnasia y Esgrima Active 121 / 109 40% 2 10.09.2028 -
Bashar Musa US Forces Armees Active 109 / 96 40% 2 28.08.2028 -
Sandro Chakvetadze Dinamo Batumi Rejected 66 / 65 65% 1 21.08.2028 Reject
Marcelo Orellana Vis Pesaro Active 106 / 129 40% 2 16.08.2028 -
Simone Ianesi Pianese Active 124 / 97 40% 1 16.08.2028 -
Léo Abreu Picerno Active 118 / 125 40% 1 14.08.2028 -
Simone Mazzocchi Cosenza Active 123 / 120 40% 3 13.08.2028 -
Francesco Petito Dolomiti Bellunesi Active 122 / 99 40% 3 10.08.2028 -
Guillaume Furrer Lecco Active 121 / 123 40% 3 10.08.2028 -
Igor Tyjon Barrow AFC Active 119 / 113 40% 5 09.08.2028 -
Lamin Sillah Exeter City Active 107 / 117 40% 3 09.08.2028 -
Louis Flower Crawley Town Active 106 / 112 40% 3 08.08.2028 -
Giuseppe Panico Foggia Active 126 / 100 40% 3 08.08.2028 -
Emanuele Scipioni Monopoli Active 104 / 135 40% 4 08.08.2028 -
Sam Nombe Milton Keynes Dons Active 131 / 131 40% 2 07.08.2028 -
Marcus Browne AFC Wimbledon Active 105 / 101 40% 4 30.06.2028 -
Pol Valentín Cambridge United Active 127 / 105 40% 1 28.06.2028 -
Jacob Bedeau Notts County Active 106 / 98 40% 1 28.06.2028 -
Matthew Craig Newport County Active 115 / 123 40% 1 28.06.2028 -
Mattia Tordini Crotone Active 102 / 94 40% 5 27.06.2028 -
Nicola Dalmonte Trento Active 113 / 117 40% 2 27.06.2028 -
Millar Matthews-Lewis Tranmere Rovers Active 100 / 111 40% 3 23.06.2028 -
Ismail Achik Salernitana Active 106 / 121 40% 2 20.06.2028 -
Anthony Scully Shrewsbury Town Active 91 / 88 40% 2 19.06.2028 -
Ahmed Abdullahi Northampton Town Active 111 / 104 40% 1 19.06.2028 -
Gianluca Contini Siracusa Active 111 / 110 40% 1 18.06.2028 -
Admir Bristrić Cambridge United Active 113 / 115 40% 1 18.06.2028 -
Jalen Blesa Oliveirense Active 114 / 125 40% 1 18.06.2028 -
Alassana Jatta Notts County Active 124 / 112 40% 4 17.06.2028 -
Kylian Kouassi Colchester United Active 110 / 95 40% 2 17.06.2028 -
Jack Vale Sorrento Active 93 / 89 40% 2 17.06.2028 -
Joshua Ajala Walsall Active 111 / 115 40% 4 16.06.2028 -
George Lloyd Shrewsbury Town Active 99 / 95 40% 3 16.06.2028 -
André Shinyashiki Plymouth Argyle Active 115 / 96 40% 1 15.06.2028 -
Kyle Wootton Stockport County Active 124 / 144 40% 4 14.06.2028 -
Paolo Yrizar Chernomorets Active 102 / 99 40% 8 13.06.2028 -
Ilja Safronov Rotor Active 106 / 104 40% 3 13.06.2028 -
Tyrese Shade Burton Albion Active 99 / 96 40% 1 10.06.2028 -
Aaron Drinan Swindon Town Active 96 / 85 40% 2 09.06.2028 -
Marco Da Graca Novara Active 117 / 126 40% 1 09.06.2028 -
Alexandr Saplinov Volga Active 98 / 99 40% 2 07.06.2028 -
David Simiyu Guria Rejected 66 / 53 65% 1 07.06.2028 -
Calum Kavanagh Oldham Athletic Active 95 / 125 40% 2 06.06.2028 -
Fletcher Boyd Accrington Stanley Active 94 / 114 40% 1 06.06.2028 -
Matty Stevens AFC Wimbledon Active 117 / 123 40% 3 05.06.2028 -
Kevin Piscopo Juve Stabia Rejected 127 / 125 40% 3 05.06.2028 -
Gennaro Tutino Sampdoria Active 115 / 145 40% 5 03.06.2028 -
Bachana Ananidze Dinamo Batumi Rejected 68 / 77 65% 1 02.06.2028 -
Nika Dumbadze Dinamo Batumi Rejected 85 / 78 65% 1 01.06.2028 -
Facundo Lescano Salernitana Active 108 / 133 40% 1 01.06.2028 -
Nicolò Bruschi Ternana Active 115 / 121 40% 1 30.05.2028 -
Layton Stewart Barnet Active 111 / 128 40% 3 26.05.2028 -
Louis Appéré Cambridge United Active 109 / 86 40% 5 23.05.2028 -
Kimarni Smith Newport County Active 104 / 88 40% 1 23.05.2028 -
Alan Cisnero Exeter City Active 111 / 107 40% 1 23.05.2028 -
Hakeeb Adelakun Doncaster Rovers Active 108 / 125 40% 3 22.05.2028 -
Kevin Martins Monza Active 107 / 122 40% 1 22.05.2028 -
Mason Bennett Harrogate Town Active 103 / 81 40% 3 21.05.2028 -
Gianluca D'Auria Potenza Active 113 / 87 40% 2 21.05.2028 -
Salvatore Longo Monopoli Active 113 / 87 40% 1 21.05.2028 -
Marcus Dinanga Bromley Active 85 / 95 40% 2 19.05.2028 -
Miloš Bočić Altamura Active 96 / 117 40% 2 19.05.2028 -
Emanuele Schimmenti Potenza Active 126 / 124 40% 2 18.05.2028 -
Luca Vido Union Brescia Active 112 / 92 40% 2 18.05.2028 -
Giacomo Zecca Torres Active 113 / 114 40% 2 16.05.2028 -
Alessandro Ghillani Lumezzane Active 107 / 122 40% 1 16.05.2028 -
Mikhail Ignatov Sochi Rejected 122 / 118 40% 2 14.05.2028 -
Vladislav Yakovlev Volga Active 103 / 87 40% 1 10.05.2028 -
Marco Tumminello Benevento Rejected 125 / 134 40% 2 08.05.2028 -
King Udoh Pro Patria Active 111 / 114 40% 1 08.05.2028 -
Marco Zunno Crotone Active 93 / 103 40% 2 06.05.2028 -
Andrew Dallas Sambenedettese Active 98 / 77 40% 1 06.05.2028 -
Will Davies Fleetwood Town Active 105 / 82 40% 1 06.05.2028 -
Víctor Guzmán Sporting CP Active 91 / 116 40% 1 03.05.2028 -
Ryan Graydon Salford City Active 118 / 120 40% 3 02.05.2028 -
Matteo Cortesi Arezzo Active 98 / 128 40% 1 29.04.2028 -
Ichem Ferrah Livorno Active 119 / 138 40% 1 24.04.2028 -
Aaron Collins Milton Keynes Dons Active 132 / 122 40% 1 23.04.2028 -
Danny Butterworth Accrington Stanley Active 95 / 89 40% 1 23.04.2028 -
Tyler Walton Bromley Active 104 / 110 40% 1 19.04.2028 -
Kyrell Lisbie Peterborough United Active 118 / 94 40% 1 18.04.2028 -
Rayan Kolli Queens Park Rangers Active 126 / 130 40% 2 17.04.2028 -
Timur Suleimanov Nizhniy Novgorod Active 127 / 116 40% 2 15.04.2028 -
Seb Palmer-Houlden Gillingham Active 110 / 114 40% 1 15.04.2028 -
Mattia Iori Lumezzane Active 117 / 122 40% 1 14.04.2028 -
Vladislav Sarveli Nizhniy Novgorod Active 109 / 109 40% 1 09.04.2028 -
Matija Popović Fakel Active 112 / 122 40% 1 04.04.2028 -
Augustine Nwaorisa Enyimba Active 80 / 112 40% 2 05.07.2027 -
Riley Owen Stevenage Active 105 / 97 40% 2 27.05.2027 -
Ilja Berkovskiy Torpedo Moscow Active 96 / 109 40% 2 25.05.2027 -
Ekain Orobengoa Real Sociedad Active 92 / 84 40% 2 23.05.2027 -
Leo Goglichidze Rodina Active 122 / 118 40% 3 21.05.2027 -
Tudor Mendel-Idowu Gubbio Active 99 / 90 40% 5 18.05.2027 -
Ruslan Apekov Torpedo Moscow Active 96 / 101 40% 6 11.05.2027 -
Jon Eceizabarrena Real Sociedad Active 106 / 121 40% 2 10.05.2027 -
Ramazan Gadjimuradov Chelyabinsk Active 103 / 112 40% 2 08.05.2027 -
Evgeny Voronin Volga Active 96 / 98 40% 1 25.04.2027 -
André Miranda Porto Active 111 / 97 40% 1 22.04.2027 -
Pablo García Gijón Active 93 / 127 40% 4 18.04.2027 -
Andi Vidal Irkutsk Active 82 / 90 40% 1 14.04.2027 -
Danil Lipovoy Ufa Active 102 / 90 40% 2 13.04.2027 -
Igor Shkolik SKA Khabarovsk Active 103 / 107 40% 2 12.04.2027 -
Martim Cunha Porto Active 108 / 112 40% 1 10.04.2027 -
Ibrahim Ashour Masr El Makasa Active 89 / 103 40% 1 05.04.2027 -
Darko Todorović Fakel Active 108 / 122 40% 2 29.03.2027 -
Kirill Danilin Ural Active 108 / 106 40% 1 29.03.2027 -
Job Ochieng Real Sociedad Active 101 / 84 40% 7 26.03.2027 -
Darío Ramírez Real Sociedad Active 81 / 85 40% 1 25.03.2027 -
Kamran Aliev SKA Khabarovsk Active 96 / 102 40% 1 24.03.2027 -
Bojan Roganović Torpedo Moscow Active 109 / 118 40% 1 17.03.2027 -
Joe Snowdon Swindon Town Active 109 / 110 40% 1 16.03.2027 -
Nuri Abdokov Fakel Active 94 / 92 40% 1 14.03.2027 -
David Kokoev Yenisey Active 102 / 117 40% 1 11.03.2027 -
Stefan Lončar Akron Active 110 / 100 40% 1 06.03.2027 -
Daniel Valdelamar Yenisey Active 91 / 106 40% 3 05.03.2027 -
Andrey Nikitin Neftekhimik Active 87 / 107 40% 2 25.02.2027 -
Romelu Meunier KV Oostende Active 94 / 104 40% 1 24.02.2027 -
Nikita Yershov Kosmos Active 82 / 70 40% 1 17.02.2027 -
Alan Tsaraev Arsenal Tula Active 106 / 93 40% 1 07.02.2027 -
Alexandr Olenev Nart Active 84 / 97 40% 4 26.01.2027 -
Stanislav Biblyk Chaika Active 99 / 92 40% 1 18.01.2027 -
Denzel Jubitana Neftchi Active 122 / 110 40% 3 31.12.2026 -
Daniil Agureev Amkar Active 96 / 78 40% 2 30.12.2026 -
Dato Mchedlidze Tskhinvali Active 101 / 115 40% 3 28.12.2026 -
Yeangel Montero Naxxar Lions Active 108 / 106 40% 4 27.12.2026 -
James Kirby Marsaxlokk Active 95 / 89 40% 2 26.12.2026 -
Nikita Simdyankin KDV Tomsk Active 92 / 90 40% 1 25.12.2026 -
Pachu Kapaz Active 104 / 87 40% 1 23.12.2026 -
Patrick Schmidt Tarxien Rainbows Active 113 / 100 40% 3 22.12.2026 -
Maxim Kutovoy Salyut Active 88 / 82 40% 1 17.12.2026 -
Tenton Yenne Baltika Active 109 / 110 40% 1 04.12.2026 -
Bruno Gomes Valletta Active 93 / 77 40% 3 03.12.2026 -
Sebastian Mailat Botosani Active 125 / 113 40% 3 01.12.2026 -
Stephen Humphrys Bradford City Active 118 / 106 40% 3 28.11.2026 -
Isaac Matondo Koper Active 106 / 115 40% 3 28.11.2026 -
Thomas Carrique Andorra Active 115 / 108 40% 1 27.11.2026 -
Dean Campbell Northampton Town Active 96 / 86 40% 1 25.11.2026 -
Will Swan Bradford City Active 92 / 125 40% 3 24.11.2026 -
Robert Murić Floriana Active 107 / 80 40% 4 19.11.2026 -
Jáder Valencia Deportes Tolima Active 129 / 136 40% 1 18.11.2026 -
Rashid Magomedov Neftekhimik Active 90 / 88 40% 1 17.11.2026 -
Lyes Houri Dinamo Tbilisi Active 105 / 109 40% 1 12.11.2026 -
Paul Mbong Floriana Active 94 / 104 40% 1 08.11.2026 -
Julen Cordero Samtredia Active 94 / 84 40% 1 08.11.2026 -
Ilja Gruznov Khimik Active 93 / 99 40% 2 07.11.2026 -
Charles Vernam Grimsby Town Active 106 / 111 40% 1 07.11.2026 -
Davit Jikia Kolkheti Active 96 / 70 40% 1 28.10.2026 -
Elías Peralta Lokomotivi Active 98 / 87 40% 2 27.10.2026 -
Yegor Kortsov Dinamo Brest Active 104 / 98 40% 1 22.10.2026 -
Miloš Jovičić Zabbar St. Patrick Active 87 / 117 40% 1 19.10.2026 -
Damir Céter Hamrun Spartans Active 96 / 91 40% 1 18.10.2026 -
Brandon Hanlan Doncaster Rovers Active 93 / 98 40% 1 15.10.2026 -
Maleace Asamoah Wigan Athletic Active 90 / 120 40% 1 09.10.2026 -
Dylan Cabral Arsenal Active 104 / 87 40% 1 08.10.2026 -
Marcos Cuenca Zaragoza Active 124 / 113 40% 1 07.10.2026 -
Will Dickson Chesterfield Active 84 / 98 40% 1 05.10.2026 -
Josh Benson Rotherham United Active 110 / 81 40% 1 05.10.2026 -
Alberto Benítez Villalba Torpedo Kutaisi Active 86 / 79 40% 1 03.10.2026 -
Leroy-Jacques Mickels Zira Active 97 / 100 40% 1 02.10.2026 -
Kekuta Manneh Samtredia Active 81 / 79 40% 3 26.09.2026 -
Daniel Udoh Salford City Active 104 / 102 40% 1 26.09.2026 -
Macaulay Langstaff Millwall Active 121 / 102 40% 1 25.09.2026 -
Shota Shekiladze Dila Active 105 / 124 40% 1 15.09.2026 -
Nahuel Roldán Deportivo La Coruña Active 107 / 103 40% 1 10.09.2026 -
Daniel Harvie Wycombe Wanderers Active 96 / 116 40% 1 08.09.2026 -
Warley Torpedo Kutaisi Active 107 / 83 40% 1 05.09.2026 -
Zurab Tsitaishvili Zugdidi Active 104 / 92 40% 1 03.09.2026 -
Mateo Stamatov Torpedo Kutaisi Active 103 / 91 40% 1 02.09.2026 -
Bence Gergényi Lokomotivi Active 105 / 106 40% 1 01.09.2026 -
Revaz Mchedlidze Sapovnela Active 60 / 80 58% 1 17.08.2026 -
Tomoki Iwata Birmingham Active 134 / 107 40% 1 02.08.2026 -
Davit Kereselidze Dila Active 95 / 92 40% 1 01.08.2026 -